Location: Lombray
(49.5154°N, 3.1089°E)
Time: 14:38:38
(UTC+00:00)

Cosmos 44 - Pass Details

Date: 15 May 2026
Orbit: 568 x 782 km, 65.1° (Epoch: 10 June)

Event Time Altitude Azimuth Distance (km) Brightness Sun altitude
Rises 22:31:44 0° 318° (NW) 3,277 8.0 -19.6°
Reaches altitude 10° 22:34:13 10° 314° (NW) 2,341 6.9 -19.7°
Maximum altitude 22:39:28 54° 239° (WSW) 931 3.8 -20.0°
Enters shadow 22:41:02 39° 187° (S) 1,125 3.9 -20.0°
